TimeMDT,TemperatureF,Dew PointF,Humidity,Sea Level PressureIn,VisibilityMPH,Wind Direction,Wind SpeedMPH,Gust SpeedMPH,PrecipitationIn,Events,Conditions,WindDirDegrees,DateUTC
12:53 AM,48.9,39.9,71,30.17,10.0,NNE,4.6,-,N/A,,Clear,30,2013-09-15 06:53:00
1:53 AM,48.9,41.0,74,30.18,10.0,ENE,5.8,-,N/A,,Clear,60,2013-09-15 07:53:00
2:53 AM,46.9,41.0,80,30.19,10.0,East,5.8,-,N/A,,Clear,80,2013-09-15 08:53:00
3:53 AM,46.9,43.0,86,30.21,10.0,East,5.8,-,N/A,,Clear,90,2013-09-15 09:53:00
4:53 AM,46.0,42.1,86,30.23,10.0,ENE,5.8,-,N/A,,Clear,70,2013-09-15 10:53:00
5:53 AM,45.0,42.1,90,30.24,10.0,ENE,5.8,-,N/A,,Clear,70,2013-09-15 11:53:00
6:53 AM,45.0,42.1,90,30.26,10.0,ENE,6.9,-,N/A,,Clear,70,2013-09-15 12:53:00
7:53 AM,48.0,45.0,89,30.28,10.0,East,8.1,-,N/A,,Clear,80,2013-09-15 13:53:00
8:53 AM,53.1,46.0,77,30.28,10.0,East,10.4,-,N/A,,Clear,80,2013-09-15 14:53:00
9:53 AM,57.0,48.0,72,30.29,10.0,East,9.2,-,N/A,,Clear,90,2013-09-15 15:53:00
10:53 AM,62.1,48.9,62,30.28,10.0,East,9.2,-,N/A,,Clear,80,2013-09-15 16:53:00
11:53 AM,66.9,51.1,57,30.27,10.0,East,11.5,-,N/A,,Clear,90,2013-09-15 17:53:00
12:53 PM,70.0,46.0,42,30.24,10.0,ESE,13.8,17.3,N/A,,Clear,110,2013-09-15 18:53:00
1:53 PM,73.0,46.9,39,30.22,10.0,ESE,8.1,21.9,N/A,,Clear,110,2013-09-15 19:53:00
2:53 PM,73.0,45.0,37,30.21,10.0,Variable,6.9,-,N/A,,Clear,0,2013-09-15 20:53:00
3:53 PM,73.0,44.1,35,30.19,10.0,SE,8.1,-,N/A,,Clear,130,2013-09-15 21:53:00
4:53 PM,72.0,44.1,37,30.17,10.0,SE,8.1,-,N/A,,Clear,140,2013-09-15 22:53:00
5:53 PM,71.1,44.1,38,30.17,10.0,SE,8.1,-,N/A,,Clear,140,2013-09-15 23:53:00
6:53 PM,66.9,44.1,44,30.17,10.0,SE,5.8,-,N/A,,Clear,130,2013-09-16 00:53:00
7:53 PM,61.0,43.0,52,30.17,10.0,ESE,5.8,-,N/A,,Clear,110,2013-09-16 01:53:00
8:53 PM,60.1,41.0,49,30.16,10.0,ESE,8.1,-,N/A,,Clear,110,2013-09-16 02:53:00
9:53 PM,57.9,39.0,49,30.15,10.0,ESE,6.9,-,N/A,,Clear,110,2013-09-16 03:53:00
10:53 PM,53.1,39.0,59,30.14,10.0,East,4.6,-,N/A,,Clear,80,2013-09-16 04:53:00
11:53 PM,53.1,39.0,59,30.12,10.0,ENE,6.9,-,N/A,,Clear,60,2013-09-16 05:53:00